RH
100 101 103 104 103 103 104 103 103 103 104 103 101 98 96 96 97 99 103 105 105 104 102 102 105 108 107 108 110 109 108 105 101 93 79 67 58 54 52 48 65 89 84 75 88 91 84 95 106 102 99 102 98 89 92 102 104 102 100 100 104 105 101 101 101 100 102 102 100 100 99 101 102 99 98 99 99 101 101 101 102 99 96 97 99 102 88
101 101 102 105 106 107 107 107 107 107 106 107 106 104 102 100 99 99 100 99 98 99 101 103 106 109 109 110 109 105 103 104 102 92 78 68 60 55 52 58 82 97 81 75 99 106 94 95 103 103 100 101 103 100 99 103 103 100 100 101 104 104 100 100 101 100 101 102 100 100 99 100 101 98 99 99 98 102 104 102 101 100 100 100 100 102 97
102 102 101 103 105 106 105 105 106 107 107 108 107 105 103 99 96 95 93 91 90 95 101 104 106 109 108 107 104 100 101 103 102 93 78 67 63 58 54 64 89 99 81 76 97 108 103 101 102 103 101 99 102 104 101 101 101 100 100 101 103 103 100 100 101 100 101 101 100 100 100 100 101 99 100 100 99 100 103 103 101 99 99 99 100 101 92
101 98 96 98 100 102 104 104 103 102 102 102 100 97 94 91 88 86 84 85 90 97 102 103 104 103 102 102 100 98 104 110 105 92 77 68 66 63 60 66 80 89 84 83 94 103 103 103 105 105 102 100 101 102 100 100 100 100 101 100 101 101 100 100 101 100 100 100 100 101 100 101 101 100 100 100 100 100 100 102 102 100 101 99 97 100 90
102 98 91 88 88 91 95 97 96 96 94 94 92 88 85 82 79 78 80 85 91 95 98 98 99 100 101 101 101 102 110 113 102 87 74 69 69 65 65 72 77 76 80 86 95 102 102 101 106 108 104 100 100 101 101 101 100 100 101 101 101 100 100 100 101 101 100 100 101 100 101 102 101 99 99 100 100 101 100 101 101 100 101 102 98 97 95
106 102 95 88 83 82 83 83 83 85 84 82 80 78 76 77 78 80 81 83 85 88 92 95 97 100 102 102 104 108 110 103 93 85 76 68 69 66 66 77 84 79 80 89 97 101 102 101 102 107 106 101 99 103 104 102 100 100 101 101 100 100 100 100 101 101 101 101 101 100 99 101 100 98 99 100 100 101 101 100 101 100 99 102 102 95 96
94 93 91 87 83 80 78 75 73 72 73 74 75 76 77 79 81 81 79 77 76 78 85 91 94 97 100 101 103 103 99 94 91 92 84 70 68 68 65 73 88 93 94 99 100 100 103 103 101 104 107 102 99 103 105 101 100 100 100 100 101 100 100 101 100 101 101 100 101 100 98 99 100 99 99 100 100 101 102 100 101 102 99 97 103 101 96
74 76 76 77 76 75 75 75 75 74 75 76 76 75 74 74 73 72 72 72 71 73 79 87 92 94 94 95 96 96 97 98 97 96 91 78 71 70 66 66 80 95 102 105 106 104 104 105 103 104 107 104 100 101 103 101 100 101 100 100 100 100 100 100 100 101 101 100 100 100 99 99 101 101 100 100 101 100 102 103 100 98 92 87 93 97 95
70 72 73 74 74 75 76 77 75 74 72 71 70 69 68 68 68 70 74 77 79 81 85 88 89 89 88 89 95 100 101 102 100 96 93 86 77 74 71 65 68 82 94 102 105 105 103 103 103 104 107 106 102 100 104 104 100 99 100 100 99 100 100 100 101 101 100 101 100 99 100 100 101 101 100 100 101 99 99 102 101 97 91 82 76 78 83
72 72 73 73 73 73 73 72 71 70 69 69 70 70 70 71 72 76 83 89 90 91 90 88 86 83 81 84 93 100 101 101 101 99 95 90 85 82 80 73 66 68 77 88 95 97 99 102 102 103 106 109 105 102 105 107 104 100 100 100 99 100 100 100 101 101 100 101 100 99 100 101 100 100 100 98 99 99 100 100 100 100 99 92 82 78 82
75 75 74 75 75 74 74 74 74 73 73 73 73 74 75 76 78 84 93 99 99 95 89 85 82 80 81 86 93 99 101 100 101 101 99 95 92 92 90 83 74 66 65 70 77 82 87 94 99 101 103 105 106 105 105 108 108 102 100 100 100 99 100 100 101 102 101 100 101 100 99 100 100 99 99 99 98 99 101 101 100 100 101 100 98 95 93
81 81 80 80 79 79 78 79 78 76 75 73 74 76 79 82 86 92 97 100 98 94 90 86 82 80 83 89 94 97 99 100 100 100 102 99 98 99 97 88 81 74 65 62 66 70 74 81 89 94 96 100 105 108 108 109 109 105 101 100 100 99 99 100 102 103 103 101 100 101 99 99 100 100 99 100 100 99 100 101 100 100 100 100 101 101 98
79 80 80 79 78 78 78 77 77 77 76 76 79 84 87 92 98 101 101 99 95 92 92 92 90 88 87 90 95 98 99 101 100 100 101 101 101 104 101 90 84 81 72 62 61 64 66 70 76 82 86 92 98 104 106 106 106 105 103 100 99 98 99 100 101 103 104 103 101 101 101 99 99 100 101 101 101 100 100 100 99 99 100 100 101 101 99
62 64 66 68 69 69 71 72 74 76 81 86 90 95 99 103 105 106 105 103 98 94 95 97 96 96 95 94 95 97 98 100 101 100 101 101 102 106 103 91 84 83 76 64 59 60 60 62 65 69 73 78 85 92 97 98 99 101 101 99 97 97 97 97 99 102 104 105 103 100 101 101 99 99 100 101 101 101 100 100 100 100 100 100 100 100 99
53 53 53 55 57 60 64 71 76 80 87 95 99 103 108 109 108 108 109 108 103 101 102 101 100 100 101 100 99 99 98 98 99 99 100 102 104 106 99 86 81 82 77 67 59 58 59 58 58 59 61 64 70 78 85 89 92 94 96 96 95 96 94 93 95 98 101 105 106 103 100 101 101 99 99 100 101 102 102 100 99 100 100 99 100 101 100
55 55 54 54 56 59 64 71 76 79 85 93 98 102 107 109 109 109 108 106 104 104 103 102 101 101 100 101 100 99 99 99 100 102 104 106 103 96 86 79 76 76 74 69 62 59 59 57 55 54 54 54 57 63 71 78 83 86 88 89 90 92 92 91 91 93 95 98 103 103 101 100 101 100 99 100 101 101 102 100 99 100 101 100 100 101 102
50 52 52 53 54 55 56 62 67 71 76 84 91 96 102 106 109 110 109 107 106 106 104 103 103 103 103 103 103 103 104 106 108 107 103 97 89 80 74 72 69 67 69 69 66 62 60 58 54 52 51 50 50 52 58 65 71 76 79 82 84 85 87 88 88 87 89 92 96 100 101 101 101 100 99 99 101 101 100 100 100 100 100 100 100 101 100
41 43 45 46 47 48 48 51 55 59 63 68 74 80 86 91 95 98 100 102 102 102 103 103 104 103 103 102 100 98 97 95 92 87 81 74 70 66 65 66 63 62 64 66 67 66 63 59 55 52 49 48 46 47 51 55 60 65 69 72 76 78 82 86 85 82 81 85 90 96 102 104 102 102 100 99 100 101 100 100 101 100 100 101 101 100 100
30 32 33 34 36 37 38 40 42 45 48 51 54 58 61 64 67 70 74 77 79 80 81 81 81 81 79 78 76 74 72 69 66 63 61 59 58 58 58 60 60 58 58 60 64 65 63 60 57 53 49 47 45 46 48 50 53 56 59 62 66 69 73 78 81 80 77 77 81 88 97 102 102 102 102 100 99 100 100 100 101 100 100 102 102 100 101
26 26 26 26 27 28 29 30 31 33 34 36 38 41 43 45 46 48 51 53 54 56 56 55 54 54 53 52 52 50 49 49 48 47 46 45 45 46 48 52 55 55 55 55 58 60 59 57 55 53 48 44 43 44 46 48 50 51 53 55 58 60 63 66 71 75 75 75 74 77 84 92 97 99 102 102 101 100 100 100 100 100 100 100 100 100 101
26 25 25 25 26 27 27 28 28 29 29 29 31 32 33 34 34 35 36 37 37 38 38 38 38 38 38 38 38 37 38 37 37 37 37 36 36 36 37 41 47 50 52 51 52 53 53 51 50 50 46 41 39 41 44 46 47 48 49 51 53 55 57 59 61 65 69 71 72 71 73 78 83 88 95 100 101 101 100 100 100 100 100 101 101 100 101
26 26 26 27 28 28 29 30 30 31 31 31 32 33 34 34 35 35 35 35 35 35 35 35 35 36 36 36 36 36 35 35 34 34 34 34 34 33 33 34 38 43 47 49 49 49 48 46 45 45 44 40 37 39 42 44 44 45 46 48 50 51 53 55 56 58 61 64 67 68 68 69 70 73 80 88 95 98 99 100 100 100 100 102 102 101 102
27 27 28 28 29 29 30 30 31 32 32 33 33 34 35 35 36 36 36 36 36 36 36 35 35 35 35 34 34 35 34 33 32 32 31 31 31 31 31 31 32 36 41 45 47 48 46 45 43 41 41 39 36 36 39 42 42 42 44 46 48 48 49 51 53 56 57 59 62 64 64 64 63 63 65 71 81 88 92 95 99 100 100 101 101 101 103
31 31 31 31 31 32 32 32 32 33 33 34 34 34 35 36 36 37 38 38 37 37 37 37 36 35 35 35 34 35 35 33 32 31 30 29 28 28 28 28 29 30 33 37 41 44 44 43 41 40 38 35 33 33 36 38 39 39 41 44 46 46 46 47 50 53 57 59 61 62 62 61 60 59 58 59 64 71 76 81 89 96 99 100 100 101 102
36 37 37 37 38 38 38 38 38 38 37 37 37 37 38 38 38 38 39 39 39 39 39 38 37 36 36 35 35 34 34 33 33 32 31 30 29 29 28 28 27 27 28 30 32 35 38 40 40 40 39 36 33 31 31 33 35 35 36 40 43 44 45 44 45 48 53 58 61 62 63 62 60 58 56 54 55 58 61 65 71 79 89 96 98 99 100
37 38 39 40 40 41 41 41 42 42 41 42 41 41 41 41 41 42 42 41 41 41 40 40 40 39 38 38 37 36 36 35 35 34 33 32 31 30 29 29 28 28 27 28 28 29 30 32 33 35 38 39 38 36 34 33 33 33 34 36 39 42 43 43 43 44 47 52 56 60 62 63 62 60 58 55 53 52 54 56 58 62 70 80 88 93 96
41 42 42 42 42 43 43 44 44 44 45 45 45 46 46 45 45 45 45 45 45 44 44 43 42 42 41 40 39 38 37 37 36 35 35 34 33 32 31 30 30 29 29 28 28 27 27 27 28 28 29 31 33 35 36 35 34 35 35 36 37 39 41 42 42 43 43 45 49 53 57 59 60 60 59 58 56 54 53 52 53 54 56 61 67 75 83
46 46 46 46 46 47 48 49 50 51 51 52 52 52 52 52 52 52 52 52 52 51 50 48 47 47 46 44 43 41 39 38 37 35 34 33 32 31 31 30 29 29 29 28 28 28 27 27 27 27 26 26 26 27 28 29 30 31 33 36 38 39 41 42 42 43 42 42 43 45 49 52 54 55 55 55 55 57 56 54 53 51 50 49 49 52 57
50 50 50 51 53 54 56 57 57 57 57 57 57 58 58 59 59 58 57 56 54 53 51 49 48 47 46 44 43 42 40 40 39 38 37 36 35 33 32 31 30 28 27 26 26 26 26 26 25 24 24 24 24 24 24 24 25 25 26 29 32 35 38 41 43 44 44 43 42 42 43 45 48 50 51 51 52 53 56 57 57 55 52 50 46 43 42
50 51 52 53 53 54 54 54 54 55 56 56 55 55 54 52 50 48 46 45 45 44 44 43 42 42 41 40 39 39 37 37 36 35 35 34 35 35 34 34 33 31 29 27 26 25 24 24 23 23 22 21 21 21 21 21 22 23 24 24 25 27 29 33 36 40 43 45 45 43 42 41 43 45 47 48 49 49 51 55 57 58 57 55 51 47 43
51 51 51 51 52 51 51 51 53 54 54 53 51 50 49 48 47 47 46 46 46 47 47 46 46 45 44 42 40 38 36 34 33 32 31 30 29 30 30 31 31 31 31 30 29 28 26 24 23 22 22 21 20 19 18 18 18 19 20 22 23 23 24 25 27 30 34 40 44 46 46 44 42 42 44 46 47 48 48 50 53 56 58 58 56 53 49
62 61 59 58 58 59 59 61 62 61 61 60 60 60 60 61 62 63 62 61 60 60 58 57 55 53 52 50 47 44 42 39 36 33 31 29 28 27 27 26 26 26 26 27 28 28 28 27 26 24 22 21 19 18 17 17 16 16 16 18 19 20 22 23 24 24 25 28 33 39 44 46 46 44 43 44 46 47 47 47 49 51 56 60 61 59 55
73 73 73 72 71 70 71 71 72 71 71 71 71 72 72 72 72 72 71 70 69 67 65 63 61 59 56 54 52 49 46 43 40 37 34 31 29 28 27 25 24 23 23 23 23 23 24 25 25 25 25 23 22 20 17 16 15 15 15 16 16 16 17 19 21 22 23 23 24 27 32 39 44 46 46 44 44 45 47 47 47 47 49 54 60 64 64
73 76 78 80 80 80 79 79 79 79 78 77 76 76 75 74 73 72 72 71 69 67 65 64 62 60 58 55 53 50 47 44 41 38 35 32 30 29 27 25 23 22 21 21 20 20 21 21 21 22 23 23 23 22 20 18 15 14 14 14 15 15 15 15 16 18 20 21 23 23 24 27 32 38 44 46 45 45 45 46 47 47 46 47 51 58 65
67 70 73 76 79 82 82 82 82 82 82 81 81 79 77 75 73 72 71 69 67 66 65 64 62 60 58 55 52 49 46 43 41 38 35 32 30 28 26 25 23 21 20 20 19 18 18 18 18 18 18 19 20 20 20 20 18 16 14 12 12 13 14 14 14 14 15 17 19 21 22 23 23 26 31 38 42 45 45 45 44 45 46 47 46 48 53
64 65 67 69 72 76 78 80 81 82 83 83 83 82 79 77 74 72 69 68 67 66 65 64 62 60 57 54 51 48 45 43 40 38 35 32 30 28 25 24 22 21 20 19 18 18 17 17 17 17 16 16 16 17 17 18 18 17 16 14 12 11 11 12 13 13 14 14 15 16 18 20 22 22 23 26 31 36 41 44 45 44 44 45 46 46 47
65 66 67 67 69 71 74 77 80 82 83 84 83 82 80 78 75 73 71 70 70 69 67 64 62 59 55 53 50 48 46 44 41 39 36 33 30 28 26 23 22 20 19 18 18 18 17 17 16 16 16 15 14 14 14 15 15 16 16 15 14 12 11 10 10 11 12 13 13 14 15 16 18 20 21 22 23 25 29 35 40 44 45 45 45 45 46
69 71 73 73 74 74 74 77 80 82 83 84 84 83 82 79 76 75 73 72 71 70 68 64 62 60 58 56 54 52 49 47 44 41 38 35 32 30 27 25 22 20 19 18 18 17 17 17 16 16 15 15 14 14 13 13 12 13 13 13 13 13 12 11 10 10 10 11 12 12 13 14 14 15 17 19 21 22 23 24 28 33 38 42 45 45 45
75 79 81 82 83 82 80 80 81 83 84 85 84 83 82 79 77 76 75 74 73 72 69 66 65 64 63 61 59 57 55 51 48 46 43 39 35 32 30 27 25 22 20 18 17 17 17 17 16 15 15 15 14 14 13 13 12 11 11 11 11 11 12 11 11 10 9 9 10 10 11 12 13 14 14 16 17 18 20 21 22 24 26 30 35 40 43
80 84 86 87 88 88 86 84 82 82 83 84 83 82 81 79 78 77 76 76 75 73 71 69 69 68 67 66 65 63 61 58 54 52 49 45 42 38 35 32 29 26 23 21 18 17 17 16 16 16 15 15 14 14 13 12 12 11 11 10 10 9 10 10 10 10 9 8 8 9 9 10 11 12 13 14 15 16 17 18 20 21 22 23 25 28 32
83 85 86 86 88 89 89 87 84 82 82 82 82 82 81 80 78 78 78 77 76 73 72 72 73 73 72 71 70 69 67 65 61 58 55 51 48 45 41 37 33 29 26 23 20 18 17 16 15 15 15 14 14 14 13 12 11 10 10 10 9 9 9 8 8 8 8 8 8 8 8 8 9 10 11 12 13 14 15 16 17 18 19 20 22 23 23
84 84 85 85 86 87 88 87 84 82 82 82 83 83 81 80 79 79 80 78 76 74 74 76 76 76 76 76 76 75 74 71 67 63 59 55 52 48 45 41 37 32 29 26 23 20 18 16 15 14 14 14 14 14 13 13 12 10 9 9 8 8 8 8 7 7 6 6 7 7 7 7 8 8 9 11 11 12 13 14 15 16 17 17 18 20 21
86 86 85 85 85 85 86 87 85 83 83 83 84 83 81 80 80 81 80 78 76 76 78 79 79 78 79 79 79 79 77 74 70 65 60 56 53 51 48 45 40 36 32 28 25 22 20 18 16 15 14 13 13 13 13 13 12 11 10 9 8 7 7 7 7 7 6 6 5 6 6 6 7 7 8 9 9 10 11 11 12 13 15 15 16 17 18
87 87 87 87 87 87 88 88 86 84 83 84 83 82 81 81 82 82 81 78 77 78 81 82 81 80 81 81 80 79 78 75 71 67 63 59 56 53 50 47 43 39 35 32 29 26 23 20 18 16 15 14 13 12 12 12 12 11 10 9 8 7 7 7 6 7 6 6 5 5 5 5 6 6 7 7 8 8 8 10 10 11 12 13 14 15 16
86 86 87 88 88 87 87 86 85 83 83 83 83 81 81 82 83 82 80 78 78 80 82 84 83 82 82 82 80 79 78 77 74 71 67 62 59 56 53 50 47 42 38 35 32 28 25 22 20 18 16 15 13 12 11 11 11 10 10 9 8 8 7 7 7 6 6 6 6 6 5 5 5 6 6 6 6 7 7 7 8 9 10 11 11 12 13
86 86 87 88 87 85 84 84 84 84 83 83 81 81 82 84 85 82 78 77 79 82 85 86 86 85 84 83 82 81 80 80 78 75 71 66 62 58 55 52 49 45 41 37 34 31 27 24 21 18 16 15 13 12 11 10 10 10 9 9 8 8 7 7 7 6 6 6 6 6 6 6 6 6 6 6 6 6 6 6 7 7 8 8 9 10 10
88 88 88 88 87 85 84 84 84 83 83 81 80 81 84 85 84 82 80 81 84 87 89 90 90 89 87 85 84 83 82 81 79 77 74 70 65 61 57 54 50 46 42 39 36 32 29 26 22 19 17 15 14 13 11 10 10 10 9 9 9 8 7 7 7 7 7 7 6 6 6 6 6 6 6 6 6 6 6 6 6 6 6 7 7 8 8
92 91 90 89 88 86 85 85 84 83 82 81 82 84 85 85 83 82 84 87 90 92 94 94 93 91 89 88 87 85 84 82 81 78 76 72 67 63 59 55 52 48 44 40 37 34 31 28 24 21 18 16 15 13 12 11 10 10 9 9 9 8 8 7 7 7 7 7 7 7 6 6 6 6 6 6 6 6 6 6 6 6 6 6 7 7 7
96 95 93 90 88 86 85 85 84 82 82 82 84 86 85 82 82 85 89 92 95 96 96 96 96 95 94 91 89 87 86 85 83 81 78 74 69 64 60 56 52 49 45 42 39 36 33 30 26 23 20 17 15 13 12 11 10 10 9 8 8 8 8 8 7 7 7 7 7 7 7 7 7 7 7 7 7 7 6 6 6 6 6 6 6 6 6
99 97 94 91 87 85 85 84 83 82 82 84 86 85 82 80 82 87 92 96 98 98 99 100 101 100 97 94 90 89 88 88 86 83 79 75 70 65 60 56 53 50 46 43 40 37 34 31 28 24 21 18 16 14 12 11 10 9 9 8 8 8 8 7 7 8 8 8 8 8 8 8 7 7 7 8 8 8 7 7 6 6 6 6 6 6 6
100 98 95 92 87 85 84 83 82 83 85 86 86 84 81 81 85 90 95 98 101 102 104 105 105 103 100 96 92 91 90 90 88 84 80 76 71 67 62 57 53 50 47 43 41 38 36 33 30 25 21 19 16 14 12 11 10 9 9 8 7 7 7 7 7 8 8 9 10 10 9 9 9 8 8 8 8 8 8 8 7 6 6 6 6 6 6
100 97 95 92 89 85 83 81 82 85 87 87 85 83 82 84 89 94 97 101 103 106 107 109 108 105 101 97 94 92 92 91 90 87 82 77 73 68 63 57 53 50 47 45 42 39 37 35 32 27 23 20 17 15 13 11 10 9 9 8 8 8 7 7 8 8 8 9 11 12 12 12 11 10 9 9 9 8 8 9 8 8 7 7 7 7 7
Wind_Speed
55 55 56 57 58 59 59 59 59 60 61 61 61 61 60 59 58 58 59 60 61 61 61 61 59 57 56 56 55 55 54 52 51 51 51 49 47 44 41 39 39 39 40 40 40 42 44 44 43 42 42 42 41 43 47 51 51 50 50 51 54 56 57 57 57 55 54 55 55 54 50 47 44 39 34 35 35 36 38 36 34 36 38 39 38 37 38
55 56 56 57 57 58 58 58 58 59 59 59 59 60 60 60 60 61 62 63 63 62 62 60 59 57 57 56 55 54 51 50 50 50 49 47 45 41 38 37 38 38 39 39 40 41 44 45 44 43 42 42 41 42 43 45 47 48 49 52 55 57 57 56 56 57 57 57 57 55 50 46 45 41 36 34 35 38 42 42 40 39 39 40 41 42 45
56 56 57 57 58 58 58 59 59 59 59 60 61 62 62 63 64 64 65 64 63 62 61 60 58 57 56 55 54 52 49 48 49 48 46 45 42 40 38 37 38 39 39 40 40 41 43 45 45 44 43 42 42 43 43 42 44 46 48 52 54 55 56 55 54 55 55 55 56 55 51 47 45 42 38 37 37 39 42 45 45 43 40 39 40 40 42
57 59 59 59 59 59 59 60 61 61 62 63 64 65 65 66 66 65 65 64 62 62 61 60 58 57 55 53 51 49 47 48 48 46 44 42 40 39 39 39 39 40 41 41 42 42 43 45 46 46 45 44 44 46 45 41 41 44 48 50 52 54 55 55 53 51 49 48 50 52 51 47 45 42 40 40 41 41 43 45 46 45 42 41 42 40 39
60 61 62 63 62 62 62 63 64 64 65 66 66 67 67 67 67 66 65 64 62 62 61 59 57 55 53 51 49 47 46 47 46 45 43 40 39 39 39 40 41 42 42 43 44 44 44 45 47 48 48 47 46 49 49 45 41 43 47 49 51 52 54 55 54 50 46 45 47 49 48 46 45 43 42 42 43 45 46 47 46 45 43 43 44 42 39
63 64 64 65 65 65 65 66 66 66 67 68 68 68 68 67 67 66 65 64 62 61 59 58 56 53 51 49 47 46 46 46 45 44 42 40 39 38 38 39 40 42 43 44 45 46 46 46 48 49 50 50 49 50 52 50 45 44 46 49 50 51 53 55 55 52 50 50 50 49 47 46 45 44 44 43 44 46 49 49 47 46 43 42 42 41 40
65 65 66 66 66 66 66 67 67 67 67 68 68 67 66 66 65 65 64 62 61 59 57 55 53 51 49 47 46 45 45 45 45 44 43 41 38 38 39 39 39 40 42 44 45 47 47 48 48 49 51 53 52 52 54 55 50 47 47 49 51 52 53 55 56 55 53 53 52 51 49 48 46 44 44 44 44 47 49 51 51 50 47 43 41 41 41
66 66 66 67 67 66 66 66 67 66 66 65 65 64 63 62 62 61 60 59 58 56 54 52 50 48 47 45 44 44 45 46 45 44 44 43 40 39 40 40 41 40 40 42 44 46 47 48 49 50 52 54 55 54 56 58 56 52 49 50 51 52 53 55 57 58 55 52 51 51 51 51 49 48 47 45 44 45 48 50 53 53 51 48 45 44 45
61 62 63 63 63 63 63 63 63 62 62 61 61 60 59 58 58 57 57 57 55 53 51 49 48 47 46 44 44 45 46 47 46 45 45 45 43 42 41 41 43 43 43 43 44 45 46 48 49 50 52 55 57 57 57 60 60 57 54 53 53 53 54 55 58 60 59 56 53 51 52 54 53 52 52 49 45 44 47 50 50 50 50 50 49 48 48
55 56 57 57 58 58 59 60 60 59 59 59 58 57 57 56 56 55 55 54 53 52 50 48 47 47 45 44 45 46 47 48 48 48 48 47 45 44 44 43 44 45 47 47 47 47 48 48 49 50 51 55 58 60 60 61 62 61 58 56 55 55 55 56 57 60 62 61 59 55 54 56 56 56 55 53 48 45 48 50 49 48 49 51 51 50 49
53 54 55 55 56 57 58 58 58 59 58 58 57 56 56 56 55 54 53 53 52 52 50 49 48 47 46 46 46 47 49 50 51 50 50 49 48 47 47 46 45 46 48 50 51 51 50 50 51 51 52 54 58 61 62 63 64 64 63 61 59 58 57 57 58 60 62 64 63 61 58 58 59 59 58 56 53 51 50 51 50 49 50 50 49 47 46
54 55 55 56 57 57 58 58 59 59 59 58 57 55 55 55 54 53 53 52 52 52 51 50 49 48 48 48 49 50 51 52 53 53 52 52 51 50 50 49 48 48 48 51 53 53 53 53 53 54 54 55 57 61 64 65 65 66 66 65 63 62 60 59 59 60 62 64 65 64 63 61 61 62 60 58 58 57 56 56 54 53 51 50 49 47 45
55 56 56 57 57 57 58 58 58 58 58 57 55 55 54 54 53 53 53 53 52 52 51 51 51 51 51 51 52 52 53 54 55 55 55 54 54 53 53 52 51 50 50 51 54 55 56 55 55 56 57 58 58 60 64 66 67 67 68 69 68 66 64 62 61 61 62 65 66 67 66 65 64 64 62 61 61 61 61 60 59 57 55 53 52 50 49
53 54 55 56 56 57 57 57 57 57 56 55 54 53 53 52 53 53 53 53 52 52 52 52 53 53 54 54 54 55 56 56 57 57 57 57 57 57 56 54 53 53 52 52 54 57 58 58 57 57 58 59 60 61 63 66 68 69 69 71 71 70 68 67 65 64 63 65 67 69 69 69 68 67 66 64 64 65 64 63 62 61 61 60 59 57 55
50 51 52 53 53 53 53 53 54 54 54 53 53 53 53 53 54 54 55 54 54 55 55 55 56 56 57 57 58 58 58 58 59 60 60 60 60 60 59 57 55 54 54 54 55 57 59 60 59 58 59 60 61 62 63 65 68 70 71 72 73 73 72 71 70 68 66 66 68 70 71 72 71 71 70 68 68 68 68 67 66 65 65 65 64 64 63
48 49 50 50 50 51 51 51 52 53 52 53 53 53 54 55 55 56 56 57 57 57 58 58 58 59 59 60 60 60 61 61 62 63 63 64 63 62 60 58 56 55 55 55 56 57 59 60 60 60 59 59 61 63 64 66 68 70 72 73 74 75 76 75 74 72 70 68 68 70 73 74 74 74 73 72 71 71 70 69 68 67 68 67 67 67 67
46 47 48 49 49 50 50 51 52 52 53 53 54 55 56 57 57 58 59 60 60 61 61 61 62 62 63 63 64 64 65 65 66 67 67 66 65 63 61 59 58 56 55 56 56 57 59 60 61 61 60 59 60 62 64 67 68 70 72 73 75 76 77 78 78 77 75 73 71 71 73 75 76 76 76 75 74 73 73 71 70 70 71 71 72 72 72
44 45 46 47 48 49 49 50 51 52 53 54 55 56 57 58 59 60 61 62 63 64 64 65 65 66 67 67 67 67 68 68 68 68 68 67 65 64 62 60 59 57 56 56 57 58 59 60 60 60 60 59 59 60 63 66 68 70 71 73 75 76 78 79 80 80 79 77 75 73 73 75 77 78 78 78 77 76 76 76 74 73 73 74 76 77 76
41 43 44 45 47 47 48 48 49 50 52 53 54 54 56 57 58 59 61 62 63 64 65 66 66 67 67 67 67 68 68 68 67 67 67 66 65 64 63 62 60 59 58 58 58 59 60 60 61 61 61 60 58 58 60 64 67 69 71 73 75 76 78 78 79 81 81 80 79 77 75 76 78 80 81 82 81 80 80 80 79 77 76 76 78 78 78
38 40 41 42 43 44 45 46 47 48 49 50 51 52 54 55 56 57 59 60 62 62 63 64 64 64 64 65 65 65 65 65 65 65 65 65 64 63 63 62 61 60 60 60 60 61 61 62 62 62 62 61 59 58 59 62 66 69 70 71 73 75 77 79 79 80 82 83 82 81 79 78 78 80 83 85 85 85 85 85 84 82 80 78 78 78 78
33 34 35 36 38 39 40 41 43 45 45 46 48 49 50 52 53 54 55 57 58 59 59 60 60 60 60 60 60 60 60 61 61 61 61 61 61 61 61 62 62 61 61 62 62 63 63 64 63 64 64 63 60 59 59 62 65 68 70 71 71 73 75 78 79 80 81 83 84 84 83 82 81 81 83 85 88 89 89 89 89 88 86 83 81 80 80
26 27 27 28 30 32 33 35 36 38 39 40 42 43 45 46 47 48 50 51 52 53 53 53 53 54 54 54 55 55 55 55 56 56 56 57 57 58 59 59 60 61 61 62 63 64 65 66 65 65 65 64 61 60 60 62 65 68 69 70 71 72 73 75 78 80 81 83 84 85 86 86 84 84 84 85 87 89 91 92 93 93 92 91 89 87 86
20 20 21 23 24 26 27 29 31 32 33 35 36 37 38 39 40 42 43 44 45 45 46 46 47 47 48 48 49 49 50 51 51 52 53 53 54 55 56 57 58 60 61 62 63 65 66 67 67 67 66 64 62 60 60 62 65 68 69 70 71 72 73 74 76 79 81 82 83 85 86 87 87 87 86 86 87 88 90 92 94 96 96 96 95 94 93
14 15 16 17 19 21 22 23 25 26 27 29 30 30 31 32 33 34 35 36 37 38 38 39 39 40 40 41 42 43 45 46 47 48 49 50 51 53 54 56 57 58 60 62 63 65 66 67 67 67 67 65 63 61 60 62 64 67 69 70 71 72 73 74 75 77 79 81 83 84 85 87 88 89 89 89 88 88 89 91 93 95 97 99 99 99 98
9 10 11 12 14 15 17 18 19 19 20 21 22 23 24 25 25 26 27 28 29 29 30 31 32 32 33 34 35 36 38 40 41 43 44 46 47 49 51 52 54 56 57 59 61 63 65 66 66 66 66 66 64 62 61 61 64 66 69 70 72 72 73 74 75 77 78 80 81 83 84 85 87 88 90 90 91 90 90 91 92 93 95 97 100 102 102
6 7 8 9 10 11 11 12 13 13 14 14 15 15 16 17 18 19 20 21 22 23 24 25 25 26 27 28 29 30 32 34 35 37 39 41 43 45 47 48 50 52 53 55 57 59 61 63 64 65 66 66 65 64 62 61 62 64 67 69 71 72 74 74 75 76 78 80 81 83 84 85 85 87 88 90 91 91 91 91 91 92 94 95 97 100 102
4 5 5 6 6 6 6 7 7 7 7 8 8 9 10 11 12 13 14 15 17 18 19 20 21 22 23 24 25 27 28 29 31 33 35 37 39 41 43 45 47 48 50 51 53 54 56 58 60 62 63 64 65 66 65 64 63 63 64 66 68 71 73 74 76 77 78 80 82 83 84 85 86 86 87 88 89 90 91 91 90 91 92 94 95 97 99
5 4 4 4 4 3 3 2 2 1 2 3 4 5 6 8 9 11 12 13 15 17 18 19 20 21 22 23 24 26 27 28 29 31 32 34 36 37 39 41 43 45 46 48 49 50 52 54 56 58 59 61 62 63 64 64 64 64 64 65 67 69 71 73 75 76 78 80 82 84 85 86 87 87 87 88 88 89 90 90 91 90 91 92 93 95 96
4 4 4 4 3 3 2 1 1 1 2 3 4 5 7 8 10 11 13 14 15 16 18 18 19 21 22 23 25 26 27 28 29 31 32 33 35 36 37 39 40 42 43 44 45 47 48 50 52 54 56 57 58 60 61 61 62 63 64 66 67 69 71 72 73 75 77 79 81 83 85 86 87 88 88 89 89 90 90 91 91 91 91 91 92 94 95
4 3 3 3 2 1 1 1 2 3 4 5 6 7 9 10 11 13 13 14 15 16 18 19 20 21 23 24 25 26 27 28 29 30 31 32 33 34 36 38 40 42 43 43 44 45 46 47 49 51 52 54 55 56 58 58 59 60 62 65 67 69 70 72 74 75 76 78 79 81 83 85 86 88 89 90 90 91 91 91 92 92 92 92 93 93 94
5 5 5 4 4 5 5 6 6 8 9 9 10 11 12 14 15 16 18 19 20 21 22 24 25 26 27 28 29 29 30 30 30 31 31 31 31 32 33 35 37 40 41 42 44 46 47 47 48 49 50 51 52 53 54 55 56 57 59 62 65 67 68 71 73 74 76 77 79 80 82 83 85 87 88 90 91 92 92 93 93 93 93 94 94 94 95
9 8 8 8 9 9 9 10 11 12 13 13 14 16 16 17 19 20 21 23 24 25 26 27 28 30 31 32 33 33 34 34 34 34 33 32 32 32 33 34 35 36 37 38 41 43 45 47 49 50 50 51 51 51 52 52 53 55 56 58 60 63 66 69 72 73 74 76 78 80 82 83 84 85 87 89 91 92 94 94 95 95 95 95 95 95 96
10 10 10 11 11 11 11 12 13 13 14 15 15 16 16 17 18 19 21 22 24 25 26 28 29 31 32 33 34 35 36 37 37 36 36 35 34 34 34 34 34 34 34 35 37 39 41 43 46 48 50 51 52 53 52 51 51 52 53 55 57 59 62 65 69 72 73 75 76 78 80 83 84 86 87 88 90 92 94 95 96 97 97 97 96 96 97
10 11 11 11 12 12 13 13 14 14 15 16 16 16 17 17 18 19 21 22 23 25 27 28 29 31 32 33 34 35 36 37 37 37 37 36 35 35 35 35 34 34 33 34 35 36 37 39 41 43 46 48 51 53 54 53 53 51 51 51 53 56 59 62 65 67 70 73 75 77 79 80 83 85 87 88 90 91 93 95 96 98 99 99 99 99 98
11 11 12 12 12 13 13 14 14 15 16 16 17 18 18 19 20 21 22 23 24 25 27 28 29 31 32 33 34 35 36 36 37 37 37 37 36 36 35 35 35 34 34 34 34 35 35 36 38 39 41 43 46 48 51 53 54 54 53 51 51 52 55 59 61 63 66 69 72 75 77 79 81 83 85 87 89 91 92 94 96 97 98 99 100 101 101
13 13 13 13 13 13 14 14 15 15 16 17 18 19 19 20 21 22 23 24 25 26 27 28 30 31 32 33 34 34 35 35 36 36 37 37 36 36 36 35 35 35 34 34 34 34 35 35 36 37 38 39 41 43 46 48 51 53 55 54 53 52 53 55 57 60 62 65 67 70 73 77 79 81 83 85 87 89 91 93 95 96 98 99 100 101 102
15 15 15 15 15 15 15 15 16 16 17 18 18 19 20 21 22 23 24 25 26 27 28 29 30 31 32 33 34 34 35 35 36 37 37 37 37 37 36 36 35 35 34 34 33 34 34 34 35 35 37 38 39 40 41 43 46 49 52 54 55 55 54 54 54 56 58 61 63 66 69 72 75 78 81 83 85 87 89 91 94 95 97 98 99 100 102
16 16 16 16 16 17 17 17 17 18 18 19 19 20 20 21 22 24 25 26 27 28 29 30 31 32 33 34 35 35 36 37 37 38 38 38 38 38 38 37 36 36 35 34 33 33 34 34 34 34 36 37 38 39 40 41 42 44 47 50 52 54 56 56 56 55 55 57 60 62 65 68 70 73 77 80 82 84 86 89 91 93 95 97 98 99 101
16 17 17 17 17 17 18 18 18 19 20 20 20 20 21 21 22 24 25 27 28 29 30 31 31 33 34 35 36 37 38 39 39 39 40 40 40 40 40 39 39 39 38 36 35 34 34 34 34 34 35 36 37 38 39 39 40 41 43 45 47 50 53 55 57 56 56 55 56 58 61 64 67 69 72 75 78 81 83 86 88 90 92 94 96 97 99
17 18 18 18 18 18 19 19 19 20 20 21 21 21 21 21 23 24 26 27 28 29 31 31 32 34 35 36 37 38 39 40 41 41 42 42 43 43 43 42 42 41 41 40 38 36 35 34 34 34 34 35 36 37 37 38 39 40 41 43 44 46 49 52 54 55 56 56 56 56 57 59 62 65 68 70 73 75 79 82 84 87 89 90 92 94 96
19 19 19 20 20 20 20 20 20 21 21 21 21 21 21 21 23 24 26 27 28 29 31 32 33 35 36 37 38 40 41 41 42 42 42 43 43 44 44 44 44 44 43 42 41 40 38 36 34 33 33 33 34 35 36 37 37 38 38 40 41 43 46 48 50 52 53 54 55 55 56 57 58 61 63 66 69 71 74 77 80 82 85 87 89 91 93
20 20 20 20 20 20 20 20 20 21 21 21 21 21 21 22 23 24 26 27 29 30 31 33 34 35 37 38 39 40 41 42 43 43 43 43 43 43 44 45 45 45 45 44 43 42 41 39 37 35 34 33 33 33 34 35 37 37 37 38 38 40 42 45 47 49 50 51 52 53 54 55 56 57 59 62 65 67 70 72 75 77 80 82 85 87 89
22 22 21 21 21 21 20 20 20 21 21 21 21 21 21 22 24 25 26 28 29 30 32 33 35 36 37 38 39 40 41 42 43 43 43 43 43 44 44 45 45 45 45 45 45 44 43 42 40 38 36 34 33 32 32 33 35 36 37 37 37 37 38 40 43 45 47 48 49 50 51 53 54 55 56 59 61 63 65 67 70 72 75 77 80 82 85
22 22 22 21 21 20 20 20 20 21 21 21 21 21 22 23 24 26 27 28 30 31 33 34 36 37 38 39 40 41 42 43 43 44 44 44 44 44 45 45 45 46 46 45 45 45 44 44 42 41 39 37 35 33 32 32 33 34 35 36 37 37 37 37 39 41 43 45 46 47 48 49 50 51 53 56 58 60 61 63 65 67 69 72 74 77 79
22 22 21 21 20 20 19 20 20 20 20 20 20 21 22 23 25 26 28 29 31 32 33 35 37 38 39 40 41 41 42 44 45 45 46 46 46 46 45 46 46 46 45 45 45 45 45 44 44 42 41 40 38 36 33 32 32 32 33 34 35 36 36 36 37 38 40 42 43 44 45 46 47 48 49 52 54 56 57 59 61 62 64 67 69 71 74
22 21 20 20 20 19 19 19 20 20 20 20 20 21 22 24 26 27 29 30 32 33 35 36 38 39 40 41 42 43 44 45 45 46 47 47 47 46 46 46 46 45 45 45 45 45 45 45 45 44 42 41 40 38 36 34 33 32 32 32 33 34 34 35 35 36 37 39 40 41 42 43 43 44 46 47 49 51 53 55 56 58 60 62 64 66 68
22 21 20 20 20 20 20 20 20 20 20 20 21 21 23 25 27 28 30 32 33 34 36 37 39 40 41 42 43 44 45 45 46 47 47 48 48 47 47 47 46 46 45 45 45 45 45 45 45 45 44 43 42 40 38 36 35 33 32 32 33 33 34 34 34 35 36 36 37 38 39 40 40 41 42 44 46 47 48 50 51 53 55 56 58 60 62
22 21 20 20 20 21 21 21 21 21 20 21 21 22 23 25 27 29 31 33 34 35 37 38 40 41 42 43 44 45 46 47 47 48 49 49 49 48 48 47 47 46 46 45 44 45 45 45 46 46 45 44 43 42 40 38 36 35 33 32 32 32 33 33 33 34 35 35 35 36 37 37 38 38 39 41 42 44 45 46 47 48 50 51 53 54 56
22 22 21 21 21 21 21 21 21 21 21 21 22 23 24 26 27 30 32 33 35 36 38 39 41 42 44 45 45 46 47 48 49 50 50 50 50 49 49 48 47 47 46 46 45 45 45 46 46 46 46 45 44 43 41 39 37 36 34 32 31 31 32 32 32 32 33 34 35 34 34 35 35 36 37 38 39 41 42 43 44 45 46 47 48 49 50
23 22 23 23 23 22 21 21 21 21 21 22 23 24 25 26 28 30 32 34 36 37 39 40 42 44 45 46 47 48 49 50 50 51 51 51 51 50 50 49 48 48 47 46 46 46 46 46 46 47 46 46 45 44 42 40 38 36 35 33 32 31 31 31 31 30 31 32 33 34 34 33 33 34 35 36 37 39 40 41 42 42 43 44 45 46 47
24 23 24 24 24 23 22 21 21 22 22 23 24 25 27 28 29 31 32 34 36 38 40 42 44 45 46 47 48 49 50 51 52 52 52 52 52 52 51 50 49 48 48 47 47 47 47 47 48 48 47 46 45 45 43 41 39 37 36 35 33 31 30 30 30 29 29 29 31 32 33 33 33 33 33 34 35 37 38 39 41 41 41 42 43 44 44
24 24 25 25 25 24 22 21 21 22 23 24 25 27 28 29 31 32 34 36 38 39 41 43 45 46 47 48 49 50 51 52 53 53 53 53 53 53 53 52 51 50 49 49 48 48 48 48 48 48 48 47 46 45 44 43 41 39 37 36 35 33 31 30 30 29 28 28 28 30 31 32 33 33 33 33 34 35 36 37 38 39 40 40 41 41 42
Wind_Direction
233 234 235 237 239 240 241 242 244 246 248 249 250 251 252 253 254 255 257 259 262 265 267 268 269 269 268 269 270 270 271 272 272 274 277 280 281 278 275 269 264 263 263 259 255 251 247 242 237 237 237 238 236 230 223 222 226 228 227 224 221 221 221 223 227 230 231 231 234 239 243 243 239 234 235 240 243 246 248 248 249 253 258 264 268 268 271
235 235 236 237 239 241 242 243 244 246 248 249 251 252 253 254 256 258 260 262 264 266 267 267 267 267 268 268 268 268 268 269 270 273 277 279 279 277 272 265 260 261 261 257 253 251 248 242 237 236 236 236 233 227 223 225 229 229 226 221 220 222 222 223 229 233 234 234 235 238 241 239 235 231 230 234 239 242 245 248 248 251 256 260 263 267 271
236 236 237 238 239 241 243 244 245 246 247 249 251 253 255 257 259 260 262 264 265 265 266 266 266 266 266 266 265 265 265 266 269 272 276 278 278 275 270 263 259 260 261 257 252 250 249 244 238 235 234 234 230 222 218 222 227 227 224 221 220 222 223 225 229 234 236 237 237 238 237 234 232 231 230 231 235 238 243 247 249 253 258 261 263 268 272
239 239 239 239 240 242 243 245 247 248 250 252 254 256 257 259 260 261 262 264 264 264 265 265 265 265 264 263 263 263 263 265 268 270 273 276 275 272 268 263 259 258 259 257 253 250 249 245 240 235 233 232 229 221 215 216 221 223 223 221 221 223 225 226 227 230 233 235 236 236 235 232 231 232 233 234 236 239 244 247 250 253 257 260 263 268 271
243 243 242 242 242 243 245 247 249 250 252 254 256 257 259 260 261 261 262 262 262 263 263 263 263 262 260 259 259 260 261 263 265 267 270 272 272 269 265 263 261 258 257 256 253 250 248 246 242 237 233 232 229 222 216 215 216 219 221 221 222 224 225 226 226 225 227 228 229 231 232 232 231 233 236 238 239 240 244 247 251 252 254 258 262 266 268
244 246 247 247 247 248 248 249 250 252 253 255 256 258 259 260 261 261 261 261 261 261 261 261 259 258 257 257 256 257 259 261 264 266 268 269 269 266 262 259 260 259 256 254 253 251 249 247 244 240 235 233 231 225 220 217 215 216 219 220 221 222 224 226 225 224 224 226 225 226 228 231 235 237 240 242 241 241 242 245 249 252 254 258 262 263 265
245 247 248 250 251 251 252 253 253 254 254 256 257 258 259 260 260 261 261 261 261 260 259 257 256 255 254 254 254 255 258 261 263 265 268 269 268 265 260 255 255 257 256 253 253 253 251 249 246 243 238 235 234 230 224 220 218 217 218 218 219 220 222 224 224 224 225 228 228 226 226 229 234 237 241 244 244 244 244 244 247 249 252 256 259 260 262
246 247 249 250 251 252 253 254 255 255 255 256 257 257 258 258 259 260 260 260 260 259 257 255 253 252 250 250 252 254 257 260 262 264 266 269 268 266 262 255 251 251 251 250 251 252 253 251 249 246 242 238 236 234 230 225 222 221 220 219 219 219 221 222 223 223 225 227 229 227 225 227 231 235 238 241 244 248 250 250 251 252 252 254 256 257 260
246 247 248 249 251 251 252 253 253 254 254 254 255 255 256 256 257 258 258 258 258 257 255 253 251 249 248 248 251 254 257 260 262 263 265 267 268 268 266 260 253 249 247 246 247 249 251 251 249 248 245 241 238 238 235 231 227 225 224 223 222 221 222 223 224 224 225 226 227 228 227 227 229 232 234 236 239 245 251 253 254 256 256 256 257 258 260
246 247 247 248 249 250 251 251 252 252 253 253 254 255 255 256 256 256 256 256 256 254 253 251 249 248 248 249 251 254 258 260 262 264 265 267 269 270 270 266 259 252 248 246 246 247 248 248 248 247 245 242 240 239 239 236 233 230 228 227 226 225 224 225 226 226 227 227 227 227 229 229 230 232 233 234 233 237 244 249 252 255 258 259 260 260 260
247 247 247 247 248 249 250 251 252 253 253 253 254 255 255 255 255 254 253 253 253 253 252 250 249 249 250 251 253 256 258 260 262 263 265 267 269 271 271 269 264 257 251 247 246 246 246 246 246 245 244 242 240 239 240 240 237 234 232 231 230 229 228 228 228 228 229 229 229 228 228 229 231 233 235 235 233 232 236 243 247 250 255 259 260 259 259
248 248 248 248 249 250 251 252 253 254 254 255 254 254 254 254 253 252 251 251 252 253 253 253 253 253 253 254 256 258 259 261 262 263 264 266 268 270 271 270 266 262 256 251 247 246 246 245 245 244 243 242 241 239 240 240 240 238 235 234 234 233 232 230 231 231 231 230 231 230 229 228 229 231 235 237 236 234 234 238 242 246 250 256 258 257 257
248 248 249 249 250 250 251 252 253 254 255 255 255 254 254 254 253 253 252 252 252 253 254 255 256 257 257 257 258 259 260 261 262 262 263 266 268 270 271 270 267 263 260 255 250 247 245 245 244 243 243 242 241 240 240 240 241 240 238 236 236 236 235 234 233 233 233 232 232 232 232 231 229 229 232 236 238 239 238 239 241 244 246 251 255 256 255
248 248 248 249 249 250 250 251 252 253 253 254 254 254 253 254 254 254 254 255 255 255 256 257 258 259 260 260 260 261 261 261 261 262 263 265 268 269 270 269 266 264 262 258 252 248 246 245 244 243 243 243 243 242 241 241 241 241 241 239 238 237 238 237 235 235 235 234 233 233 233 233 231 229 230 233 238 241 243 243 243 244 245 247 251 253 254
250 249 248 248 249 249 249 250 250 251 251 252 252 252 253 253 253 254 255 256 257 257 258 259 259 260 261 261 262 262 262 261 261 262 264 266 268 269 269 268 266 264 262 259 254 250 247 246 244 244 244 243 243 243 242 242 242 242 242 241 240 239 239 239 238 237 236 236 235 234 234 235 234 232 231 232 236 239 243 245 246 247 247 249 251 253 254
252 252 251 251 251 250 250 249 250 250 250 250 251 251 252 252 253 254 255 256 257 258 258 259 260 260 261 261 262 262 263 263 264 265 266 267 268 269 268 267 265 263 262 259 256 252 249 247 245 244 244 244 244 243 243 242 242 242 243 243 242 241 240 240 240 239 238 238 237 236 235 235 235 234 233 233 236 238 240 243 245 247 248 249 250 252 253
253 253 254 254 253 253 252 252 252 252 252 251 252 252 252 253 254 254 255 256 257 258 259 259 260 261 261 262 262 263 263 264 265 266 267 267 268 267 266 265 263 261 260 258 256 253 250 248 247 245 245 244 244 243 242 242 242 242 243 243 243 243 242 241 241 240 240 240 239 238 237 236 236 236 234 235 236 237 238 239 241 243 245 246 247 249 250
253 253 254 254 254 254 254 254 253 254 253 253 253 253 254 254 255 255 256 257 258 259 259 260 260 261 262 262 263 264 264 265 265 266 266 266 266 265 264 262 261 259 257 255 254 253 251 249 248 247 246 245 244 242 242 241 241 242 242 243 243 243 243 242 242 241 241 241 240 240 239 237 237 237 236 236 237 237 237 238 240 242 243 244 246 247 249
254 254 254 254 254 254 254 254 254 254 254 254 254 254 254 255 255 256 257 258 258 259 260 260 260 261 262 263 263 264 264 265 265 265 265 264 263 262 261 260 258 257 255 253 252 251 251 250 249 249 248 246 244 242 241 241 241 241 241 242 242 243 243 243 243 242 242 242 241 241 240 239 238 238 238 238 238 238 237 238 240 242 243 244 245 247 248
254 254 253 253 253 253 253 253 253 253 253 253 253 254 254 255 255 256 256 257 258 258 259 260 261 262 262 263 264 264 264 264 264 264 264 263 262 260 259 257 256 255 253 252 251 250 250 250 249 249 249 248 246 243 241 240 240 240 240 241 241 242 243 243 243 243 243 243 242 242 242 241 240 239 239 239 239 239 238 238 239 241 243 245 246 248 249
254 253 253 253 252 252 252 252 252 252 252 252 252 253 254 254 255 256 256 257 258 259 260 261 262 263 263 264 264 265 265 264 264 263 262 261 260 259 257 256 254 253 252 251 250 250 250 250 249 250 250 250 247 245 242 240 239 239 240 240 240 241 242 243 243 243 243 243 243 243 243 242 241 241 240 239 240 240 240 239 239 240 242 244 246 247 249
254 253 252 251 250 249 249 249 249 249 250 250 250 251 252 254 254 255 256 257 257 258 259 260 261 262 262 263 263 264 263 263 262 261 260 259 258 257 256 255 253 252 251 250 250 250 250 250 250 250 251 251 249 245 242 240 238 238 239 240 240 240 240 241 242 243 243 243 243 243 243 243 243 242 241 241 240 240 240 241 240 240 241 243 245 247 248
254 252 250 247 245 244 244 243 243 244 244 245 246 248 249 249 251 252 253 254 255 257 258 259 259 260 261 261 262 262 262 262 262 261 260 258 256 255 254 253 252 251 250 250 250 250 250 251 251 252 252 252 250 247 243 240 238 238 238 239 240 240 240 240 241 241 242 242 243 243 243 244 243 243 243 242 242 242 241 241 242 242 242 243 244 247 249
250 248 247 245 244 244 244 243 243 243 243 244 245 247 248 248 249 251 253 254 256 257 259 260 261 261 261 262 261 261 261 262 263 262 262 261 259 258 256 255 254 253 252 251 251 250 250 251 252 253 253 253 252 249 245 242 239 238 238 238 239 240 240 239 239 240 241 241 242 242 243 243 244 244 244 243 243 243 243 242 242 242 243 243 244 246 248
238 236 235 235 235 236 238 239 240 242 243 244 245 247 248 250 251 253 254 256 258 260 261 262 263 264 264 264 264 263 263 263 264 264 264 264 263 263 262 261 260 259 258 257 256 255 254 254 254 255 255 256 255 253 249 245 242 240 239 239 239 240 240 240 239 239 239 240 241 241 242 243 243 244 244 244 244 244 244 244 243 243 244 244 245 246 247
207 209 212 215 217 220 224 227 231 235 238 241 244 247 249 252 254 257 259 261 262 264 265 265 266 267 268 268 268 268 268 268 267 267 267 267 266 266 265 265 264 263 263 262 261 261 260 260 259 258 258 258 258 257 255 251 247 244 242 241 241 241 241 241 240 240 239 239 239 240 241 242 243 243 244 245 245 244 244 244 245 245 245 245 246 246 247
147 158 168 177 183 189 195 204 212 220 227 234 241 246 251 256 259 262 265 268 271 272 273 274 275 276 276 276 275 275 274 273 272 271 270 269 269 268 268 267 267 266 266 265 264 264 263 262 262 261 260 259 258 258 257 255 253 249 247 245 244 243 242 242 241 241 241 240 240 240 240 241 242 242 243 244 245 245 245 245 245 245 245 246 246 247 248
107 113 119 124 131 135 138 152 181 218 247 262 270 277 282 286 287 286 286 286 286 286 285 284 285 284 284 283 283 282 281 280 279 278 276 275 274 272 271 271 270 269 268 267 267 266 265 264 263 262 261 260 259 258 257 256 255 253 251 249 247 246 244 243 242 242 242 241 241 240 240 241 241 242 243 243 244 245 245 245 245 245 245 246 246 247 248
77 80 82 81 81 77 73 60 10 326 311 304 302 301 298 292 286 282 280 280 280 282 283 284 285 284 284 284 284 284 284 283 282 282 281 280 280 280 279 278 276 274 272 270 269 268 267 266 265 264 262 261 260 259 257 256 255 254 253 252 250 249 247 245 244 242 242 242 242 241 241 241 241 241 242 243 243 244 244 245 246 246 246 246 246 247 247
58 57 56 52 45 29 342 305 308 310 308 304 299 293 287 283 279 278 280 283 287 292 294 295 296 295 294 293 291 290 288 285 283 281 280 279 278 279 279 279 278 278 277 276 274 272 270 268 267 266 265 264 262 260 259 257 255 253 252 251 251 250 249 248 246 244 243 242 242 242 242 241 241 241 241 242 243 243 244 244 245 246 246 246 246 247 248
16 12 9 2 352 344 336 333 330 326 321 317 314 312 312 313 313 313 314 314 314 314 313 312 311 309 307 305 303 301 298 296 293 290 287 284 281 279 277 275 274 274 275 276 276 276 275 273 272 270 268 267 265 263 261 259 257 255 252 251 250 249 249 249 248 247 245 243 242 242 242 242 241 241 241 241 242 242 243 244 244 245 246 246 246 247 248
354 351 349 346 344 342 339 335 331 327 325 324 324 324 325 325 324 322 320 318 317 316 314 313 311 310 308 307 306 305 304 302 300 298 296 294 291 287 284 280 276 275 274 274 273 273 273 273 274 273 273 271 269 267 264 262 260 258 255 253 251 250 248 248 248 248 247 245 244 243 242 242 242 241 241 241 241 241 242 243 243 244 245 245 246 247 248
336 336 334 333 331 329 328 324 321 319 318 317 317 317 317 315 313 312 310 310 309 309 308 307 306 306 305 304 304 303 303 302 302 301 300 299 297 295 292 288 285 283 280 278 275 273 271 270 270 270 271 271 272 271 270 267 263 260 257 255 254 252 250 248 248 247 247 246 245 244 243 242 242 242 241 241 241 241 241 242 243 243 244 244 245 246 247
323 322 320 317 315 313 311 308 306 304 303 303 303 304 304 304 304 304 303 303 303 303 303 304 303 303 303 302 302 302 302 302 302 301 301 301 300 298 297 295 293 291 288 285 282 279 276 273 270 268 267 267 268 269 270 270 269 266 262 258 255 253 252 251 249 248 247 246 246 246 245 244 243 242 242 242 242 241 241 241 242 243 243 244 244 245 246
313 310 307 304 302 299 297 295 293 292 292 293 295 297 298 299 301 301 301 301 302 303 304 304 304 304 304 304 304 303 303 303 303 303 303 303 303 302 300 299 298 296 294 291 289 286 283 279 276 272 269 267 266 265 266 268 269 269 267 264 259 255 253 252 251 250 248 247 246 246 246 245 245 244 243 243 243 242 242 242 242 242 243 244 244 245 245
308 305 301 298 295 293 291 290 290 289 289 290 292 294 295 297 299 300 302 304 306 308 309 309 308 308 307 307 307 308 308 308 308 308 308 307 306 305 304 303 301 300 298 296 294 292 289 286 283 279 275 272 268 266 264 264 265 266 267 267 266 262 258 254 252 251 250 249 248 246 246 246 246 246 245 244 244 244 244 243 243 243 243 244 244 245 246
306 304 301 299 296 294 293 293 292 292 292 291 292 293 295 298 300 303 306 309 311 312 313 313 312 312 312 313 314 315 315 315 314 313 313 312 311 310 309 307 306 304 302 301 299 297 295 292 289 286 283 279 275 272 268 265 264 263 264 265 266 265 264 260 257 253 251 250 249 248 247 246 246 246 246 246 246 245 245 244 245 244 244 244 244 245 245
304 303 301 299 297 296 294 293 293 292 292 292 292 294 295 298 302 305 309 311 313 315 316 317 318 318 319 320 321 321 321 320 320 319 318 317 316 315 314 313 312 310 308 307 305 303 300 298 294 291 288 284 281 278 275 271 268 265 263 263 263 264 264 264 262 259 255 252 251 250 249 248 247 246 246 246 246 246 246 246 246 246 246 246 245 246 246
305 303 301 299 297 294 292 290 290 290 290 291 292 293 295 298 302 306 309 313 316 318 319 321 323 324 325 325 325 325 325 324 324 323 323 322 321 320 319 318 318 316 315 313 311 308 306 303 299 296 292 288 285 282 280 277 274 271 268 265 263 262 262 263 263 262 260 257 254 252 250 249 249 248 247 246 246 247 247 247 247 247 247 247 247 247 247
306 303 301 298 295 292 289 287 287 287 287 289 290 292 295 298 302 306 310 314 317 320 322 325 326 327 328 328 328 328 327 327 327 326 326 325 324 324 323 322 321 320 318 317 315 313 311 308 304 301 296 292 289 285 282 279 277 274 272 270 267 265 263 262 262 262 262 261 259 256 253 251 250 249 249 248 247 247 247 248 248 248 249 249 249 248 248
306 302 299 296 293 290 287 285 285 285 286 288 290 293 295 298 302 307 311 315 318 321 324 327 328 329 330 330 330 330 330 329 329 328 328 327 326 326 325 324 323 322 321 319 318 316 314 312 309 305 301 298 294 291 287 284 280 277 274 271 269 268 266 265 263 262 262 261 260 259 257 255 252 251 250 249 249 248 248 248 248 248 249 249 250 250 250
306 302 299 296 293 289 286 285 284 285 287 289 291 293 295 298 303 307 312 315 319 322 326 328 329 330 331 331 331 331 331 330 330 329 328 328 327 326 326 325 324 323 322 321 319 318 317 315 314 311 308 304 300 296 292 288 285 282 279 275 271 269 268 267 266 264 263 262 261 260 259 258 256 254 252 251 250 249 249 248 248 248 249 249 250 250 251
306 303 300 296 293 290 288 286 286 287 288 290 291 293 295 299 304 309 313 317 321 324 327 328 329 330 331 331 332 332 331 331 330 329 329 329 329 328 327 326 325 324 323 322 321 320 319 318 317 315 312 309 305 300 296 292 288 286 283 281 277 273 270 268 267 267 265 264 262 261 259 258 257 256 255 254 253 251 250 250 249 249 249 250 250 250 251
305 303 300 297 293 291 289 288 287 288 289 290 292 293 297 301 306 310 314 318 322 325 327 328 329 331 331 331 331 331 331 331 331 331 331 331 331 330 329 328 326 325 324 323 322 321 320 319 318 317 315 313 309 306 302 297 293 289 286 284 282 279 275 272 269 268 267 266 265 263 261 259 258 257 256 256 255 254 253 252 251 251 250 250 251 251 251
306 303 300 297 293 291 289 288 288 289 290 291 293 295 299 304 308 312 315 319 322 325 326 328 329 330 331 331 331 332 332 333 333 332 332 332 332 331 330 329 328 327 326 325 323 322 321 320 319 318 317 315 313 310 306 303 298 294 290 287 284 282 280 277 274 271 269 267 266 265 263 262 260 258 257 256 256 256 255 254 254 253 253 252 252 252 252
307 304 301 297 295 293 291 291 290 291 292 292 294 297 302 306 310 313 317 320 322 325 327 328 329 330 330 331 331 332 333 333 333 333 333 333 333 332 332 330 329 328 327 326 325 323 322 321 320 319 318 316 315 313 311 308 304 300 296 293 289 286 283 281 278 275 272 270 268 266 265 263 262 261 259 258 257 257 256 256 255 254 254 254 253 253 254
308 305 302 299 297 296 295 293 293 292 293 294 296 301 305 309 312 315 318 321 323 325 327 327 328 329 330 331 332 332 333 333 333 333 333 333 333 333 332 331 330 329 328 327 326 325 324 322 321 320 319 318 317 315 314 312 310 307 303 299 295 292 288 285 283 280 277 274 271 269 267 266 264 263 262 261 260 260 259 258 257 256 255 255 255 254 254
306 304 301 299 298 297 296 295 294 294 295 297 300 304 308 311 314 316 319 321 323 325 326 327 328 329 330 331 332 332 332 333 333 333 333 333 333 333 333 332 331 330 329 328 328 327 326 324 323 321 320 318 317 316 315 314 312 310 307 303 299 296 292 289 286 284 281 278 275 272 270 269 268 266 265 264 264 263 262 261 260 259 258 257 256 256 255
304 301 300 298 297 297 296 295 295 295 297 299 303 306 309 312 315 317 319 321 322 323 324 326 327 329 329 330 331 332 332 333 333 333 333 333 333 333 333 332 332 331 331 330 329 328 327 326 324 322 320 319 317 316 316 315 313 311 309 306 303 299 295 292 289 287 284 281 278 275 273 271 270 269 268 267 266 265 264 264 263 262 261 260 259 258 258
301 300 298 298 297 297 297 297 297 298 299 302 305 307 310 314 316 317 318 319 321 323 324 326 327 327 328 329 330 331 332 332 332 333 333 333 333 333 333 332 332 332 332 331 330 329 328 327 325 323 321 319 318 317 316 316 315 313 311 309 306 303 300 296 293 290 287 284 281 279 276 274 271 269 267 266 266 265 265 265 264 263 263 262 262 261 260
299 298 297 297 297 298 298 299 299 300 302 304 306 309 311 314 316 317 318 320 321 323 324 325 325 326 327 328 329 330 331 331 332 332 333 333 333 333 333 333 333 333 333 332 331 331 330 328 326 324 322 321 319 318 317 317 316 315 314 311 309 306 303 300 296 293 290 287 284 282 280 277 274 272 269 268 266 266 266 266 266 266 265 265 264 264 263
297 297 297 297 298 299 299 300 300 301 302 304 307 309 311 314 316 317 319 320 321 322 322 323 324 324 325 327 328 329 330 331 331 331 332 333 333 333 333 333 333 333 333 332 332 331 331 329 328 325 323 321 320 319 318 317 316 316 315 313 311 308 305 303 300 296 293 289 285 282 280 278 277 275 273 271 269 267 266 266 267 267 267 266 266 265 265